TimeEET,TemperatureF,Dew PointF,Humidity,Sea Level PressureIn,VisibilityMPH,Wind Direction,Wind SpeedMPH,Gust SpeedMPH,PrecipitationIn,Events,Conditions,WindDirDegrees,DateUTC
12:20 AM,60.8,53.6,77,30.04,-9999.0,NNE,4.6,-,N/A,,Clear,20,2012-10-31 22:20:00
12:50 AM,59.0,55.4,88,30.04,-9999.0,Variable,4.6,-,N/A,,Clear,0,2012-10-31 22:50:00
1:20 AM,60.8,53.6,77,30.04,-9999.0,Variable,4.6,-,N/A,,Clear,0,2012-10-31 23:20:00
1:50 AM,57.2,53.6,88,30.04,-9999.0,North,4.6,-,N/A,,Clear,350,2012-10-31 23:50:00
2:00 AM,57,53,83,30.04,6,North,4.6,,,,,350,2012-11-01 00:00:00
2:20 AM,55.4,53.6,94,30.04,-9999.0,North,4.6,-,N/A,,Clear,10,2012-11-01 00:20:00
2:50 AM,55.4,53.6,94,30.01,-9999.0,North,4.6,-,N/A,,Clear,10,2012-11-01 00:50:00
3:20 AM,55.4,53.6,94,30.01,-9999.0,North,3.5,-,N/A,,Clear,360,2012-11-01 01:20:00
3:50 AM,55.4,53.6,94,30.01,-9999.0,North,5.8,-,N/A,,Clear,350,2012-11-01 01:50:00
4:20 AM,55.4,53.6,94,30.01,4.3,North,4.6,-,N/A,,Unknown,360,2012-11-01 02:20:00
4:50 AM,55.4,53.6,94,30.01,4.3,North,4.6,-,N/A,,Unknown,360,2012-11-01 02:50:00
5:20 AM,55.4,55.4,100,30.01,4.3,North,5.8,-,N/A,,Unknown,10,2012-11-01 03:20:00
5:50 AM,57.2,55.4,94,30.01,-9999.0,North,6.9,-,N/A,,Clear,10,2012-11-01 03:50:00
6:20 AM,59.0,53.6,82,29.98,-9999.0,NNE,5.8,-,N/A,,Clear,30,2012-11-01 04:20:00
6:50 AM,55.4,53.6,94,30.01,-9999.0,Variable,2.3,-,N/A,,Clear,0,2012-11-01 04:50:00
7:20 AM,60.8,51.8,72,30.01,-9999.0,ENE,3.5,-,N/A,,Clear,70,2012-11-01 05:20:00
7:50 AM,62.6,51.8,68,29.98,-9999.0,NE,4.6,-,N/A,,Clear,50,2012-11-01 05:50:00
8:00 AM,62,52,61,30.00,6,NE,4.6,,,,Clear,50,2012-11-01 06:00:00
8:20 AM,62.6,51.8,68,30.01,-9999.0,East,4.6,-,N/A,,Clear,80,2012-11-01 06:20:00
8:50 AM,66.2,53.6,64,30.01,-9999.0,East,5.8,-,N/A,,Clear,100,2012-11-01 06:50:00
9:20 AM,66.2,53.6,64,30.01,-9999.0,East,4.6,-,N/A,,Clear,100,2012-11-01 07:20:00
9:50 AM,66.2,53.6,64,30.01,-9999.0,East,4.6,-,N/A,,Clear,90,2012-11-01 07:50:00
10:20 AM,66.2,51.8,60,29.98,-9999.0,ESE,5.8,-,N/A,,Clear,120,2012-11-01 08:20:00
10:50 AM,66.2,51.8,60,29.98,-9999.0,SE,6.9,-,N/A,,Clear,130,2012-11-01 08:50:00
11:20 AM,66.2,53.6,64,29.98,-9999.0,SSE,6.9,-,N/A,,Clear,150,2012-11-01 09:20:00
11:50 AM,68.0,53.6,60,29.95,-9999.0,SE,5.8,-,N/A,,Clear,140,2012-11-01 09:50:00
12:20 PM,69.8,53.6,56,29.95,-9999.0,SE,3.5,-,N/A,,Clear,130,2012-11-01 10:20:00
12:50 PM,69.8,53.6,56,29.92,-9999.0,ESE,4.6,-,N/A,,Clear,110,2012-11-01 10:50:00
1:20 PM,69.8,53.6,56,29.92,-9999.0,ESE,3.5,-,N/A,,Clear,110,2012-11-01 11:20:00
1:50 PM,71.6,53.6,53,29.92,-9999.0,Variable,4.6,-,N/A,,Clear,0,2012-11-01 11:50:00
2:00 PM,71,53,42,29.92,6,SE,4.6,,,,,130,2012-11-01 12:00:00
2:20 PM,71.6,50.0,46,29.92,-9999.0,Variable,4.6,-,N/A,,Clear,0,2012-11-01 12:20:00
2:50 PM,71.6,50.0,46,29.92,-9999.0,ESE,5.8,-,N/A,,Clear,110,2012-11-01 12:50:00
3:20 PM,69.8,50.0,49,29.89,-9999.0,ESE,5.8,-,N/A,,Clear,110,2012-11-01 13:20:00
3:50 PM,68.0,51.8,56,29.89,6.2,ESE,4.6,-,N/A,,Mostly Cloudy,110,2012-11-01 13:50:00
4:20 PM,68.0,51.8,56,29.89,6.2,East,4.6,-,N/A,,Mostly Cloudy,100,2012-11-01 14:20:00
4:50 PM,68.0,53.6,60,29.89,6.2,East,4.6,-,N/A,,Mostly Cloudy,100,2012-11-01 14:50:00
5:20 PM,68.0,51.8,56,29.89,6.2,East,3.5,-,N/A,,Mostly Cloudy,90,2012-11-01 15:20:00
5:50 PM,69.8,50.0,49,29.89,6.2,ESE,4.6,-,N/A,,Mostly Cloudy,110,2012-11-01 15:50:00
6:20 PM,69.8,51.8,53,29.89,6.2,ESE,4.6,-,N/A,,Scattered Clouds,110,2012-11-01 16:20:00
6:50 PM,68.0,55.4,64,29.89,6.2,SE,3.5,-,N/A,,Mostly Cloudy,130,2012-11-01 16:50:00
7:20 PM,68.0,57.2,68,29.89,6.2,SE,4.6,-,N/A,,Mostly Cloudy,130,2012-11-01 17:20:00
7:50 PM,68.0,57.2,68,29.86,6.2,East,4.6,-,N/A,,Mostly Cloudy,100,2012-11-01 17:50:00
8:00 PM,69,57,56,29.88,6,East,4.6,,,,Partly Cloudy,100,2012-11-01 18:00:00
8:20 PM,69.8,57.2,64,29.86,6.2,Variable,3.5,-,N/A,,Mostly Cloudy,0,2012-11-01 18:20:00
8:50 PM,69.8,55.4,60,29.86,6.2,East,4.6,-,N/A,,Mostly Cloudy,100,2012-11-01 18:50:00
9:20 PM,69.8,55.4,60,29.86,6.2,ESE,4.6,-,N/A,,Mostly Cloudy,120,2012-11-01 19:20:00
9:50 PM,68.0,57.2,68,29.86,6.2,East,4.6,-,N/A,,Mostly Cloudy,100,2012-11-01 19:50:00
10:20 PM,68.0,59.0,73,29.86,6.2,ESE,4.6,-,N/A,,Mostly Cloudy,110,2012-11-01 20:20:00
10:50 PM,68.0,57.2,68,29.86,-9999.0,East,3.5,-,N/A,,Clear,100,2012-11-01 20:50:00
11:20 PM,68.0,55.4,64,29.83,6.2,ENE,3.5,-,N/A,,Mostly Cloudy,70,2012-11-01 21:20:00
11:50 PM,68.0,55.4,64,29.83,6.2,East,3.5,-,N/A,Rain,Light Rain Showers,80,2012-11-01 21:50:00